Princeton, MN

8:05 AM CDT on May 30, 2017 (GMT -0500)
Princeton Municipal

Weather History for KPNM - May, 2013

Change the Weather History Date:

Tuesday, May 7, 2013

  Actual Average Record
Temperature  
Mean Temperature 60 °F -  
Max Temperature 78 °F 62 °F 78 °F (2000)
Min Temperature 42 °F 40 °F 37 °F (2002)
Degree Days  
Heating Degree Days 5    
Growing Degree Days 10 (Base 50)    
Moisture  
Dew Point 43 °F    
Average Humidity 57    
Maximum Humidity 93    
Minimum Humidity 24    
Precipitation  
Precipitation 0.00 in - - ()
Sea Level Pressure  
Sea Level Pressure 30.01 in    
Wind  
Wind Speed 2 mph (South)    
Max Wind Speed 10 mph    
Max Gust Speed 20 mph    
Visibility 10 miles    
Events      
Averages and records for this station are not official NWS values.
T = Trace of Precipitation, MM = Missing Value Source: NWS Daily Summary

Daily Weather History Graph

Daily Weather History Graph

Search for Another Location

Airport or City:

Trip Planner

Search our weather history database for the weather conditions in past years. The results will help you decide how hot, cold, wet, or windy it might be!

Date:

Astronomy

May. 07, 2013 Rise Set
Actual Time 5:53 AM CDT 8:29 PM CDT
Civil Twilight 5:19 AM CDT 9:03 PM CDT
Nautical Twilight 4:37 AM CDT 9:45 PM CDT
Astronomical Twilight 3:49 AM CDT 10:34 PM CDT
Moon 4:34 AM CDT (5/7) 6:24 PM CDT (5/7)
Length of Visible Light 15h 43m
Length of Day
14h 35m
Waning Crescent, 5% of the Moon is Illuminated
May 7
Waning Crescent
May 9
New
May 17
First Quarter
May 24
Full
May 31
Last Quarter

Hourly Weather History & Observations

Time (CDT) Temp. Dew Point Humidity Pressure Visibility Wind Dir Wind Speed Gust Speed Precip Events Conditions
12:11 AM 51.8 °F 46.4 °F 82% 30.04 in 10.0 mi Calm Calm - N/A   Clear
12:31 AM 50.0 °F 46.4 °F 87% 30.04 in 10.0 mi Calm Calm - N/A   Clear
12:52 AM 51.8 °F 44.6 °F 76% 30.05 in 10.0 mi Calm Calm - N/A   Clear
1:11 AM 50.0 °F 46.4 °F 87% 30.05 in 10.0 mi Calm Calm - N/A   Clear
1:31 AM 50.0 °F 46.4 °F 87% 30.05 in 10.0 mi Calm Calm - N/A   Clear
1:52 AM 50.0 °F 44.6 °F 82% 30.05 in 10.0 mi Calm Calm - N/A   Clear
2:11 AM 48.2 °F 44.6 °F 87% 30.05 in 10.0 mi Calm Calm - N/A   Unknown
2:31 AM 48.2 °F 44.6 °F 87% 30.04 in 10.0 mi Calm Calm - N/A   Clear
3:11 AM 46.4 °F 42.8 °F 87% 30.04 in 10.0 mi Calm Calm - N/A   Clear
3:31 AM 46.4 °F 42.8 °F 87% 30.04 in 10.0 mi Calm Calm - N/A   Clear
3:50 AM 46.4 °F 42.8 °F 87% 30.04 in 10.0 mi Calm Calm - N/A   Clear
4:11 AM 44.6 °F 42.8 °F 93% 30.04 in 10.0 mi Calm Calm - N/A   Clear
4:31 AM 46.4 °F 44.6 °F 93% 30.04 in 10.0 mi Calm Calm - N/A   Clear
4:51 AM - 42.8 °F N/A% 30.04 in 7.0 mi Calm Calm - N/A   Unknown
5:11 AM 44.6 °F 42.8 °F 93% 30.05 in 7.0 mi Calm Calm - N/A   Clear
5:31 AM 44.6 °F 41.0 °F 87% 30.05 in 10.0 mi Calm Calm - N/A   Clear
5:51 AM 42.8 °F 41.0 °F 93% 30.05 in 7.0 mi Calm Calm - N/A   Clear
6:11 AM 44.6 °F 42.8 °F 93% 30.05 in 5.0 mi Calm Calm - N/A   Clear
6:31 AM 44.6 °F 42.8 °F 93% 30.05 in 7.0 mi Calm Calm - N/A   Clear
6:51 AM 46.4 °F 44.6 °F 93% 30.06 in 10.0 mi Calm Calm - N/A   Clear
7:11 AM 48.2 °F 46.4 °F 93% 30.06 in 10.0 mi Calm Calm - N/A   Clear
7:31 AM 51.8 °F 46.4 °F 82% 30.06 in 10.0 mi Calm Calm - N/A   Clear
7:52 AM 53.6 °F 48.2 °F 82% 30.06 in 10.0 mi Calm Calm - N/A   Clear
8:11 AM 55.4 °F 48.2 °F 77% 30.06 in 10.0 mi Calm Calm - N/A   Clear
8:31 AM 57.2 °F 48.2 °F 72% 30.07 in 10.0 mi Calm Calm - N/A   Clear
8:52 AM 60.8 °F 48.2 °F 63% 30.07 in 10.0 mi Calm Calm - N/A   Clear
9:11 AM 62.6 °F 48.2 °F 59% 30.06 in 10.0 mi Calm Calm - N/A   Clear
9:31 AM 64.4 °F 48.2 °F 56% 30.06 in 10.0 mi East 3.5 mph - N/A   Clear
9:52 AM 66.2 °F 48.2 °F 52% 30.06 in 10.0 mi SE 3.5 mph - N/A   Clear
10:11 AM 68.0 °F 48.2 °F 49% 30.06 in 10.0 mi Calm Calm - N/A   Clear
10:31 AM 69.8 °F 48.2 °F 46% 30.05 in 10.0 mi SE 4.6 mph - N/A   Clear
10:51 AM 71.6 °F 46.4 °F 41% 30.05 in 10.0 mi ESE 5.8 mph - N/A   Clear
11:11 AM 71.6 °F 46.4 °F 41% 30.05 in 10.0 mi SSW 5.8 mph - N/A   Unknown
11:31 AM 71.6 °F 44.6 °F 38% 30.05 in 10.0 mi ESE 5.8 mph - N/A   Scattered Clouds
11:51 AM 71.6 °F 44.6 °F 38% 30.04 in 10.0 mi SSW 6.9 mph - N/A   Mostly Cloudy
12:11 PM 73.4 °F 44.6 °F 36% 30.04 in 10.0 mi SSW 4.6 mph - N/A   Scattered Clouds
12:52 PM 75.2 °F 42.8 °F 31% 30.02 in 10.0 mi South 6.9 mph - N/A   Mostly Cloudy
1:11 PM 75.2 °F 39.2 °F 27% 30.02 in 10.0 mi SE 9.2 mph - N/A   Scattered Clouds
1:31 PM 73.4 °F 39.2 °F 29% 30.02 in 10.0 mi East 5.8 mph - N/A   Mostly Cloudy
1:52 PM 73.4 °F 39.2 °F 29% 30.01 in 10.0 mi South 3.5 mph - N/A   Overcast
2:11 PM 77.0 °F 42.8 °F 29% 30.01 in 10.0 mi South 10.4 mph - N/A   Mostly Cloudy
2:31 PM 75.2 °F 41.0 °F 29% 30.00 in 10.0 mi SSE 4.6 mph - N/A   Scattered Clouds
2:52 PM 75.2 °F 42.8 °F 31% 30.00 in 10.0 mi SSE 9.2 mph - N/A   Clear
3:11 PM 73.4 °F 42.8 °F 33% 29.99 in 10.0 mi Calm Calm - N/A   Scattered Clouds
3:31 PM 77.0 °F 41.0 °F 28% 29.98 in 10.0 mi SSW 8.1 mph 19.6 mph N/A   Scattered Clouds
3:52 PM 73.4 °F 42.8 °F 33% 29.98 in 10.0 mi South 6.9 mph - N/A   Clear
4:11 PM 75.2 °F 41.0 °F 29% 29.98 in 10.0 mi SSW 4.6 mph - N/A   Scattered Clouds
4:31 PM 73.4 °F 39.2 °F 29% 29.97 in 10.0 mi Calm Calm - N/A   Scattered Clouds
4:51 PM 73.4 °F 39.2 °F 29% 29.97 in 10.0 mi SSE 5.8 mph - N/A   Scattered Clouds
5:11 PM 77.0 °F 39.2 °F 26% 29.97 in 10.0 mi SW 8.1 mph 18.4 mph N/A   Mostly Cloudy
5:32 PM 78.8 °F 39.2 °F 24% 29.97 in 10.0 mi South 6.9 mph - N/A   Mostly Cloudy
5:51 PM 77.0 °F 37.4 °F 24% 29.96 in 10.0 mi South 8.1 mph - N/A   Scattered Clouds
6:11 PM 75.2 °F 37.4 °F 25% 29.96 in 10.0 mi South 6.9 mph - N/A   Scattered Clouds
6:32 PM 75.2 °F 37.4 °F 25% 29.96 in 10.0 mi South 6.9 mph - N/A   Scattered Clouds
6:51 PM 75.2 °F 37.4 °F 25% 29.95 in 10.0 mi South 6.9 mph - N/A   Clear
7:11 PM 73.4 °F 39.2 °F 29% 29.96 in 10.0 mi South 5.8 mph - N/A   Clear
7:32 PM 73.4 °F 41.0 °F 31% 29.96 in 10.0 mi SSW 6.9 mph - N/A   Clear
7:51 PM 71.6 °F 41.0 °F 33% 29.96 in 10.0 mi SSW 4.6 mph - N/A   Clear
8:11 PM 69.8 °F 39.2 °F 33% 29.96 in 10.0 mi Calm Calm - N/A   Clear
8:32 PM 66.2 °F 41.0 °F 40% 29.96 in 10.0 mi Calm Calm - N/A   Clear
8:51 PM 62.6 °F 46.4 °F 55% 29.96 in 10.0 mi Calm Calm - N/A   Clear
9:11 PM 60.8 °F 46.4 °F 59% 29.97 in 10.0 mi Calm Calm - N/A   Clear
9:32 PM 60.8 °F 44.6 °F 55% 29.97 in 10.0 mi Calm Calm - N/A   Clear
9:51 PM 59.0 °F 46.4 °F 63% 29.97 in 10.0 mi Calm Calm - N/A   Clear
10:11 PM 57.2 °F 44.6 °F 63% 29.97 in 10.0 mi Calm Calm - N/A   Clear
10:32 PM 55.4 °F 44.6 °F 67% 29.97 in 10.0 mi Calm Calm - N/A   Clear
10:51 PM 53.6 °F 44.6 °F 72% 29.97 in 10.0 mi Calm Calm - N/A   Clear
11:11 PM 53.6 °F 44.6 °F 72% 29.97 in 10.0 mi Calm Calm - N/A   Clear
11:32 PM 53.6 °F 44.6 °F 72% 29.97 in 10.0 mi Calm Calm - N/A   Clear
11:51 PM 53.6 °F 42.8 °F 67% 29.97 in 10.0 mi Calm Calm - N/A   Clear